This is the latest recevied weather packets stored in our database for station/object KA2FNK. If no packets are shown the sender has not sent any weather packets the latest 1 day(s).
| Time | Temp. | Humidity | Pressure | Rain* | Wind** | Luminosity | Snow |
|---|---|---|---|---|---|---|---|
| 1778006674 | 8.89° C | 95% | 1011.6 hPa | 1.02 mm | 0 m/s | - | - |
| 1778006373 | 8.89° C | 95% | 1011.6 hPa | 1.02 mm | 0 m/s | - | - |
| 1778006072 | 8.89° C | 95% | 1011.8 hPa | 1.02 mm | 0.45 m/s, 151° | - | - |
| 1778005771 | 8.33° C | 95% | 1011.9 hPa | 1.02 mm | 0.45 m/s, 149° | - | - |
| 1778005470 | 8.33° C | 95% | 1012.1 hPa | 0.76 mm | 1.79 m/s, 80° | - | - |
| 1778005169 | 8.33° C | 95% | 1012.4 hPa | 0.76 mm | 0.45 m/s, 122° | - | - |
| 1778004868 | 8.33° C | 95% | 1012.2 hPa | 0.76 mm | 0.45 m/s, 92° | - | - |
| 1778004567 | 8.89° C | 95% | 1012.4 hPa | 0.76 mm | 0 m/s | - | - |
| 1778004267 | 8.33° C | 95% | 1012.5 hPa | 0.51 mm | 0 m/s | - | - |
| 1778003965 | 8.33° C | 95% | 1012.4 hPa | 0.25 mm | 0.89 m/s, 84° | - | - |
| 1778003664 | 8.33° C | 94% | 1012.5 hPa | 0.25 mm | 0.89 m/s, 5° | - | - |
| 1778003363 | 8.33° C | 95% | 1012.5 hPa | 0.25 mm | 0.45 m/s, 60° | - | - |
| 1778003062 | 8.33° C | 95% | 1012.7 hPa | 0 mm | 0 m/s | - | - |
| 1778002761 | 8.33° C | 94% | 1012.6 hPa | 0 mm | 0.89 m/s, 35° | - | - |
| 1778002460 | 8.33° C | 95% | 1012.6 hPa | 0.25 mm | 0 m/s | - | - |
| 1778002159 | 8.33° C | 95% | 1012.5 hPa | 0.25 mm | 1.79 m/s, 60° | - | - |
| 1778001858 | 8.33° C | 95% | 1012.6 hPa | 0.25 mm | 2.24 m/s, 35° | - | - |
| 1778001558 | 8.33° C | 95% | 1012.5 hPa | 0.51 mm | 1.79 m/s, 61° | - | - |
| 1778001256 | 8.33° C | 95% | 1012.5 hPa | 0.51 mm | 2.24 m/s, 54° | - | - |
| 1778000955 | 8.33° C | 95% | 1012.6 hPa | 0.51 mm | 2.68 m/s, 81° | - | - |
| 1778000654 | 7.78° C | 95% | 1012.6 hPa | 0.51 mm | 2.24 m/s, 98° | - | - |
| 1778000353 | 7.78° C | 95% | 1012.2 hPa | 0.76 mm | 0.45 m/s, 23° | - | - |
| 1778000052 | 7.78° C | 95% | 1012.1 hPa | 1.02 mm | 1.34 m/s, 90° | - | - |
| 1777999751 | 7.78° C | 95% | 1012.4 hPa | 1.27 mm | 1.79 m/s, 77° | - | - |
| 1777999450 | 7.78° C | 95% | 1012.4 hPa | 1.52 mm | 0.45 m/s, 91° | - | - |
* Rain latest hour (hover to see other rain measurements)
** Current wind speed in m/s (hover to see current wind gust speed)